"2022-07-27 00:01:00",3042405,2.246,308.8667,1.146771,0.08639441,2.37,0,0.566,324.2027,7.249919,0.1355384,0.88,0,-999,0,10.39,86.8,10.41,10.51,0.2,0,0,9.65,13.27,0.2,102.0823,3.301,3.302,3.3,100,0,0,0,191,94.8,94.8
"2022-07-27 00:02:00",3042406,2.252,309.9333,1.525992,0.183092,2.55,0,0.65,325.008,5.995202,0.08156797,0.78,0,-999,0,10.38,86.9,10.42,10.52,0.2,0,0,9.63,13.26,0.2,102.0845,3.3,3.301,3.3,100,0,0,0,191,94.8,94.8
"2022-07-27 00:03:00",3042407,2.336667,308.9331,1.806036,0.1186405,2.55,0,0.5426667,318.5365,5.629168,0.09168545,0.71,0,-999,0,10.38,87,10.42,10.53,0.2,0,0,9.62,13.27,0.2,102.0943,3.303,3.303,3.3,100,0,0,0,191,94.8,94.8
"2022-07-27 00:04:00",3042408,2.169334,308.8,1.599894,0.1541197,2.42,0,0.596,318.0751,5.94511,0.08654865,0.73,0,-999,0,10.37,87.1,10.43,10.54,0.2,0,0,9.59,13.27,0.2,102.0934,3.301,3.304,3.301,100,0,0,0,191,94.8,94.8
"2022-07-27 00:05:00",3042409,2.341333,305.7999,1.557483,0.1437065,2.59,0,0.4186667,308.2535,6.289779,0.1042348,0.61,0,-999,0,10.36,87.2,10.44,10.56,0.2,0,0,9.57,13.27,0.2,102.0882,3.301,3.301,3.3,100,0,0,0,191,94.8,94.8
"2022-07-27 00:06:00",3042410,2.506667,305.9335,1.481667,0.1033225,2.68,0,0.56,306.847,9.875835,0.1012587,0.81,0,-999,0,10.38,87.3,10.49,10.6,0.2,0,0,9.56,13.27,0.2,102.0867,3.301,3.302,3.3,100,0,0,0,191,94.8,94.8
"2022-07-27 00:07:00",3042411,2.387333,305.4,0.9520664,0.08520303,2.58,0,0.5846666,305.3286,11.36169,0.1219763,0.81,0,-999,0,10.39,87.4,10.51,10.62,0.2,0,0,9.53,13.26,0.2,102.0925,3.3,3.301,3.3,100,0,0,0,191,94.8,94.8
"2022-07-27 00:08:00",3042412,2.252,305.1333,0.9567826,0.05833232,2.33,0,0.5406667,311.5986,14.88397,0.1365512,0.73,0,-999,0,10.39,87.4,10.53,10.63,0.2,0,0,9.52,13.27,0.2,102.0846,3.301,3.302,3.3,100,0,0,0,191,94.8,94.8
"2022-07-27 00:09:00",3042413,2.384,304.5333,1.024162,0.07472619,2.51,0,0.6173334,313.6783,6.227841,0.09622659,0.79,0,-999,0,10.42,87.5,10.52,10.63,0.2,0,0,9.51,13.26,0.2,102.0919,3.303,3.303,3.301,100,0,0,0,191,94.8,94.8
"2022-07-27 00:10:00",3042414,2.336,304.0667,1.062338,0.060531,2.43,0,0.6953334,311.7952,5.465875,0.08624513,0.84,0,-999,0,10.44,87.6,10.54,10.64,0.2,0,0,9.48,13.26,0.2,102.0938,3.301,3.303,3.3,100,0,0,0,191,94.8,94.8
"2022-07-27 00:11:00",3042415,2.326,304.8,0.9091658,0.06887672,2.48,0,0.5566666,314.5968,6.835391,0.1093415,0.72,0,-999,0,10.44,87.6,10.55,10.65,0.2,0,0,9.46,13.27,0.2,102.0803,3.3,3.302,3.3,100,0,0,0,191,94.8,94.8
"2022-07-27 00:12:00",3042416,2.272666,305.2667,0.6798497,0.09426674,2.52,0,0.5473334,318.2,4.76231,0.1084107,0.75,0,-999,0,10.45,87.6,10.55,10.65,0.2,0,0,9.45,13.26,0.2,102.0829,3.301,3.301,3.3,100,0,0,0,191,94.8,94.8
"2022-07-27 00:13:00",3042417,2.307334,305.3333,1.349828,0.09029333,2.52,0,0.576,317.0731,6.949514,0.1270066,0.88,0,-999,0,10.44,87.6,10.52,10.64,0.2,0,0,9.44,13.27,0.2,102.079,3.3,3.301,3.3,100,0,0,0,191,94.8,94.8
"2022-07-27 00:14:00",3042418,2.384666,306.1333,1.203565,0.08015542,2.5,0,0.5919999,316.2192,7.434139,0.1079012,0.85,0,-999,0,10.42,87.5,10.5,10.63,0.2,0,0,9.41,13.27,0.2,102.086,3.3,3.3,3.298,100,0,0,0,191,94.8,94.8
"2022-07-27 00:15:00",3042419,2.385334,307.8661,2.124688,0.07762017,2.54,0,0.6273333,321.533,4.730241,0.1154393,0.79,0,-999,0,10.41,87.5,10.45,10.61,0.2,0,0,9.39,13.27,0.2,102.0893,3.3,3.301,3.3,100,0,0,0,191,94.8,94.8
"2022-07-27 00:16:00",3042420,2.44,306.5334,1.203565,0.08687154,2.6,0,0.5733334,316.678,6.920241,0.1354827,0.86,0,-999,0,10.4,87.5,10.44,10.59,0.2,0,0,9.38,13.27,0.2,102.0928,3.3,3.301,3.299,100,0,0,0,191,94.8,94.8
"2022-07-27 00:17:00",3042421,2.362,305.6,0.8795152,0.04928832,2.46,0,0.5226667,310.2645,6.697477,0.1109034,0.78,0,-999,0,10.38,87.5,10.44,10.58,0.2,0,0,9.35,13.27,0.2,102.0844,3.301,3.302,3.3,100,0,0,0,191,94.8,94.8
"2022-07-27 00:18:00",3042422,2.358667,306.5333,0.7177936,0.06530614,2.46,0,0.4786667,313.3312,11.1827,0.10125,0.62,0,-999,0,10.38,87.4,10.41,10.55,0.2,0,0,9.34,13.26,0.2,102.0857,3.3,3.301,3.299,100,0,0,0,191,94.8,94.8
"2022-07-27 00:19:00",3042423,2.328667,307.3333,0.869107,0.04773075,2.4,0,0.5073333,321.5681,12.60909,0.1077322,0.7,0,-999,0,10.37,87.5,10.38,10.53,0.2,0,0,9.31,13.27,0.2,102.0911,3.3,3.301,3.299,100,0,0,0,191,94.8,94.8
"2022-07-27 00:20:00",3042424,2.240667,306.7333,0.8534284,0.06607736,2.33,0,0.5186667,314.8667,5.226154,0.06216823,0.63,0,-999,0,10.36,87.5,10.35,10.5,0.2,0,0,9.3,13.27,0.2,102.0774,3.299,3.3,3.298,100,0,0,0,191,94.8,94.8
"2022-07-27 00:21:00",3042425,2.046667,307.6666,1.19262,0.04908041,2.13,0,0.4793333,319.851,8.661064,0.09469016,0.67,0,-999,0,10.35,87.5,10.35,10.49,0.2,0,0,9.27,13.26,0.2,102.0847,3.299,3.3,3.298,100,0,0,0,191,94.8,94.8
"2022-07-27 00:22:00",3042426,2.18,308.2,1.326718,0.07438637,2.29,0,0.5506667,322.7375,5.5158,0.07877957,0.69,0,-999,0,10.34,87.5,10.35,10.47,0.2,0,0,9.26,13.27,0.2,102.0797,3.301,3.302,3.299,100,0,0,0,191,94.8,94.8
"2022-07-27 00:23:00",3042427,2.167333,307.3333,0.9427708,0.03355927,2.21,0,0.5553333,316.5514,7.321972,0.1148835,0.76,0,-999,0,10.36,87.6,10.38,10.51,0.2,0,0,9.24,13.26,0.2,102.0775,3.3,3.302,3.3,100,0,0,0,191,94.8,94.8
"2022-07-27 00:24:00",3042428,2.192,306.4666,1.203728,0.07185169,2.31,0,0.52,317.1316,5.313842,0.08824209,0.72,0,-999,0,10.36,87.8,10.43,10.54,0.2,0,0,9.22,13.27,0.2,102.0885,3.3,3.3,3.299,100,0,0,0,191,94.8,94.8
"2022-07-27 00:25:00",3042429,2.178667,305,1.316499,0.1578973,2.46,0,0.554,315.2724,6.001204,0.07863843,0.73,0,-999,0,10.36,87.8,10.42,10.54,0.2,0,0,9.2,13.27,0.2,102.0862,3.3,3.301,3.3,100,0,0,0,191,94.8,94.8
"2022-07-27 00:26:00",3042430,2.146667,306.3333,1.247173,0.09199034,2.34,0,0.406,312.4014,4.962162,0.07181456,0.59,0,-999,0,10.38,87.8,10.41,10.53,0.2,0,0,9.18,13.26,0.2,102.0809,3.3,3.3,3.3,100,0,0,0,191,94.8,94.8
"2022-07-27 00:27:00",3042431,1.948666,306.4002,1.7047,0.0972191,2.08,0,0.312,320.1863,13.77589,0.08915903,0.46,0,-999,0,10.36,87.8,10.37,10.5,0.2,0,0,9.17,13.27,0.2,102.0738,3.3,3.301,3.3,100,0,0,0,191,94.8,94.8
"2022-07-27 00:28:00",3042432,1.952667,307.5334,1.499463,0.07911734,2.1,0,0.2646666,326.6571,6.732134,0.06053833,0.36,0,-999,0,10.34,87.8,10.33,10.47,0.2,0,0,9.15,13.27,0.2,102.0899,3.3,3.301,3.3,100,0,0,0,191,94.8,94.8
"2022-07-27 00:29:00",3042433,1.887333,308.0667,1.123494,0.07911734,2.06,0,0.3626667,333.803,7.426696,0.04668571,0.46,0,-999,0,10.31,87.7,10.3,10.42,0.2,0,0,9.12,13.26,0.2,102.0805,3.298,3.3,3.298,100,0,0,0,191,94.8,94.8
"2022-07-27 00:30:00",3042434,1.940667,309,1.032536,0.06647974,2.05,0,0.3866666,330.8661,2.98514,0.04093355,0.44,0,-999,0,10.27,87.6,10.3,10.39,0.2,0,0,9.1,13.27,0.2,102.0802,3.299,3.3,3.297,100,0,0,0,191,94.8,94.8
"2022-07-27 00:31:00",3042435,2.049333,310.2,1.681107,0.09855402,2.18,0,0.5013334,330.4667,3.242141,0.0700349,0.59,0,-999,0,10.27,87.7,10.32,10.4,0.2,0,0,9.09,13.26,0.2,102.0909,3.299,3.3,3.298,100,0,0,0,191,94.8,94.8
"2022-07-27 00:32:00",3042436,1.936667,311.7333,1.062523,0.07152309,2.04,0,0.4766666,329.5951,4.406477,0.08653839,0.62,0,-999,0,10.3,87.9,10.37,10.45,0.2,0,0,9.08,13.27,0.2,102.0884,3.3,3.3,3.299,100,0,0,0,191,94.8,94.8
"2022-07-27 00:33:00",3042437,1.917333,312.4667,0.9567826,0.05949418,2,0,0.4813333,334.0718,9.528008,0.06936537,0.58,0,-999,0,10.31,88,10.43,10.49,0.2,0,0,9.05,13.27,0.2,102.0794,3.299,3.299,3.297,100,0,0,0,191,94.8,94.8
"2022-07-27 00:34:00",3042438,1.882,314.2001,1.514531,0.0882572,2.01,0,0.5366667,330.7862,6.245805,0.05951658,0.66,0,-999,0,10.33,88.1,10.47,10.53,0.2,0,0,9.03,13.26,0.2,102.0832,3.297,3.3,3.296,100,0,0,0,191,94.8,94.8
"2022-07-27 00:35:00",3042439,1.809333,315.0666,1.181324,0.04234253,1.87,0,0.5953333,333.8671,2.57831,0.04897165,0.69,0,-999,0,10.32,88.2,10.46,10.55,0.2,0,0,9.01,13.27,0.2,102.0851,3.3,3.3,3.296,100,0,0,0,191,94.8,94.8
"2022-07-27 00:36:00",3042440,1.719333,316.8,0.909381,0.06826093,1.82,0,0.5713333,333.2636,4.903553,0.04924316,0.69,0,-999,0,10.32,88.3,10.5,10.58,0.2,0,0,8.99,13.26,0.2,102.0767,3.3,3.301,3.3,100,0,0,0,191,94.8,94.8
"2022-07-27 00:37:00",3042441,1.642,320.0666,1.691498,0.04338969,1.73,0,0.5286667,326.5274,4.464343,0.03913509,0.61,0,-999,0,10.36,88.4,10.57,10.64,0.2,0,0,8.98,13.26,0.2,102.075,3.3,3.3,3.299,100,0,0,0,191,94.8,94.8
"2022-07-27 00:38:00",3042442,1.487333,324.9302,3.062748,0.1110235,1.67,0,0.5233333,338.0618,7.003973,0.09802494,0.63,0,-999,0,10.37,88.4,10.56,10.65,0.2,0,0,8.96,13.27,0.2,102.0756,3.3,3.301,3.299,100,0,0,0,191,94.8,94.8
"2022-07-27 00:39:00",3042443,1.439333,323.9333,1.730519,0.08053708,1.61,0,0.27,31.11998,17.76024,0.07247988,0.4,0,-999,0,10.35,88.2,10.38,10.55,0.2,0,0,8.94,13.26,0.2,102.0764,3.3,3.301,3.299,100,0,0,0,191,94.8,94.8
"2022-07-27 00:40:00",3042444,1.321333,321.0667,1.435976,0.05748817,1.42,0,0.364,49.65848,9.513007,0.05666274,0.44,0,-999,0,10.28,88,10.27,10.42,0.2,0,0,8.92,13.27,0.2,102.0708,3.3,3.3,3.298,100,0,0,0,191,94.8,94.8
"2022-07-27 00:41:00",3042445,1.388,323.8667,3.116721,0.05344157,1.48,0,0.466,55.93365,2.767718,0.02524546,0.5,0,-999,0,10.23,87.8,10.21,10.35,0.2,0,0,8.91,13.26,0.2,102.0687,3.298,3.3,3.298,100,0,0,0,191,94.8,94.8
"2022-07-27 00:42:00",3042446,1.306,324.9328,2.976789,0.09864415,1.44,0,0.4626667,56.26584,3.171355,0.02489088,0.5,0,-999,0,10.19,87.7,10.19,10.31,0.2,0,0,8.9,13.26,0.2,102.072,3.296,3.299,3.296,100,0,0,0,191,94.8,94.8
"2022-07-27 00:43:00",3042447,1.187333,325.5376,5.46052,0.1934069,1.44,0,0.3753333,65.99957,2.250444,0.03913509,0.43,0,-999,0,10.17,87.7,10.23,10.31,0.2,0,0,8.89,13.27,0.2,102.0683,3.3,3.3,3.296,100,0,0,0,191,94.8,94.8
"2022-07-27 00:44:00",3042448,1.106667,324.7994,4.734396,0.1176813,1.34,0,0.2626667,75.44067,7.367229,0.03767699,0.34,0,-999,0,10.15,87.7,10.25,10.32,0.2,0,0,8.87,13.26,0.2,102.0769,3.297,3.3,3.297,100,0,0,0,191,94.8,94.8
"2022-07-27 00:45:00",3042449,1.138,323.4653,4.659311,0.1216114,1.34,0,0.3813334,88.59238,7.395272,0.05953896,0.48,0,-999,0,10.14,87.7,10.2,10.31,0.2,0,0,8.86,13.27,0.2,102.0741,3.299,3.3,3.297,100,0,0,0,191,94.8,94.8
"2022-07-27 00:46:00",3042450,1.036,322.9924,9.14797,0.1691863,1.25,0,0.3213333,108.6798,11.87546,0.07847434,0.49,0,-999,0,10.09,87.6,10.1,10.24,0.2,0,0,8.85,13.27,0.2,102.0788,3.298,3.3,3.298,100,0,0,0,191,94.8,94.8
"2022-07-27 00:47:00",3042451,1.124667,318.335,6.79693,0.1266947,1.42,0,0.2846667,107.3171,15.14857,0.06469072,0.36,0,-999,0,10.07,87.5,10.04,10.19,0.2,0,0,8.83,13.26,0.2,102.0792,3.3,3.3,3.298,100,0,0,0,191,94.8,94.8
"2022-07-27 00:48:00",3042452,1.086667,312.8634,4.854811,0.1980797,1.51,0,0.2373333,129.5186,8.873854,0.02644911,0.29,0,-999,0,10.02,87.3,10.01,10.11,0.2,0,0,8.81,13.27,0.2,102.0792,3.298,3.3,3.298,100,0,0,0,191,94.8,94.8
"2022-07-27 00:49:00",3042453,0.9986666,315.6938,10.10296,0.1567531,1.29,0,0.2173333,148.7473,15.26616,0.02792052,0.27,0,-999,0,10.02,87.3,9.95,10.05,0.2,0,0,8.81,13.26,0.2,102.0808,3.298,3.3,3.298,100,0,0,0,191,94.8,94.8
"2022-07-27 00:50:00",3042454,0.9826666,313.9328,5.010834,0.1464908,1.31,0,0.2126667,126.2679,4.738589,0.03434466,0.29,0,-999,0,10.02,87.3,9.9,10.01,0.2,0,0,8.8,13.26,0.2,102.0774,3.3,3.3,3.297,100,0,0,0,191,94.8,94.8
"2022-07-27 00:51:00",3042455,0.9800001,312.1999,3.86668,0.1171324,1.22,0,0.244,120.5393,4.540218,0.03517575,0.29,0,-999,0,10.02,87.3,9.86,9.96,0.2,0,0,8.78,13.27,0.2,102.0767,3.299,3.299,3.298,100,0,0,0,191,94.8,94.8
"2022-07-27 00:52:00",3042456,1.056,318.0666,3.749542,0.08372972,1.18,0,0.258,111.0662,3.956944,0.03902136,0.29,0,-999,0,10.02,87.3,9.85,9.94,0.2,0,0,8.77,13.26,0.2,102.0736,3.298,3.299,3.296,100,0,0,0,191,94.8,94.8
"2022-07-27 00:53:00",3042457,0.9686666,320.8658,3.242172,0.05908937,1.08,0,0.3013333,104.8643,4.095363,0.02472965,0.34,0,-999,0,10.02,87.3,9.86,9.93,0.2,0,0,8.75,13.27,0.2,102.0772,3.297,3.298,3.296,100,0,0,0,191,94.8,94.8
"2022-07-27 00:54:00",3042458,0.9666665,320.4013,3.516943,0.09693068,1.11,0,0.37,94.93328,1.768624,0.03651483,0.44,0,-999,0,10.02,87.3,9.8,9.89,0.2,0,0,8.74,13.27,0.2,102.0734,3.298,3.3,3.297,100,0,0,0,191,94.8,94.8
"2022-07-27 00:55:00",3042459,0.8826666,323.5281,5.744862,0.1336895,1.08,0,0.3153333,90.73393,3.128933,0.04773073,0.44,0,-999,0,10.02,87.3,9.9,9.91,0.2,0,0,8.72,13.26,0.2,102.0763,3.297,3.298,3.296,100,0,0,0,191,94.8,94.8
"2022-07-27 00:56:00",3042460,0.6666667,328.3584,7.810977,0.148937,0.96,0,0.47,92.39999,2.49779,0.04242639,0.52,0,-999,0,10.02,87.3,9.83,9.91,0.2,0,0,8.71,13.27,0.2,102.0802,3.298,3.299,3.298,100,0,0,0,191,94.8,94.8
"2022-07-27 00:57:00",3042461,0.5546666,330.9315,11.3091,0.1097796,0.77,0,0.6266667,96.46717,2.777438,0.08466931,0.72,0,-999,0,10.02,87.3,9.73,9.86,0.2,0,0,8.7,13.26,0.2,102.0701,3.298,3.299,3.298,100,0,0,0,191,94.8,94.8
"2022-07-27 00:58:00",3042462,0.4053333,336.8848,12.48237,0.088609,0.6,0,0.6506667,92.33353,1.98866,0.02644912,0.68,0,-999,0,10.02,87.3,9.72,9.82,0.2,0,0,8.68,13.27,0.2,102.0708,3.296,3.299,3.296,100,0,0,0,191,94.8,94.8
"2022-07-27 00:59:00",3042463,0.3913333,335.3335,14.05692,0.07658256,0.52,0,0.702,96.53339,1.667894,0.03270067,0.76,0,-999,0,10.02,87.3,9.72,9.81,0.2,0,0,8.67,13.26,0.2,102.0797,3.298,3.298,3.296,100,0,0,0,191,94.8,94.8
"2022-07-27 01:00:00",3042464,0.4546666,325.8644,11.92737,0.1057586,0.64,0,0.668,99.86707,2.654775,0.0540617,0.75,0,-999,0,10.02,87.3,9.73,9.81,0.2,0,0,8.65,13.26,0.2,102.0754,3.297,3.299,3.297,100,0,0,0,191,94.8,94.8
"2022-07-27 01:01:00",3042465,0.4053333,314.0872,19.43208,0.1306837,0.68,0,0.52,104.5334,1.820882,0.04760953,0.57,0,-999,0,10.02,87.3,9.75,9.81,0.2,0,0,8.61,13.27,0.2,102.0853,3.299,3.299,3.296,100,0,0,0,191,94.8,94.8
"2022-07-27 01:02:00",3042466,0.416,315.1518,13.68213,0.07787169,0.55,0,0.4433333,109.668,3.196638,0.07299924,0.56,0,-999,0,10.02,87.3,9.72,9.79,0.2,0,0,8.61,13.26,0.2,102.0718,3.298,3.299,3.297,100,0,0,0,191,94.8,94.8
"2022-07-27 01:03:00",3042467,0.3686666,316.1489,9.082866,0.06829999,0.5,0,0.3673334,107.802,5.367787,0.05893122,0.45,0,-999,0,10.02,87.3,9.74,9.77,0.2,0,0,8.59,13.26,0.2,102.0745,3.298,3.298,3.297,100,0,0,0,191,94.8,94.8
"2022-07-27 01:04:00",3042468,0.4506667,314.737,6.337646,0.0720617,0.63,0,0.4973334,105.2034,4.117172,0.08012215,0.6,0,-999,0,10.02,87.3,9.81,9.8,0.2,0,0,8.57,13.26,0.2,102.0741,3.299,3.299,3.297,100,0,0,0,191,94.8,94.8
"2022-07-27 01:05:00",3042469,0.614,317.8065,15.43214,0.1570902,0.83,0,0.414,107.8001,2.427178,0.0397995,0.5,0,-999,0,10.02,87.3,9.83,9.8,0.2,0,0,8.57,13.26,0.2,102.0752,3.298,3.3,3.297,100,0,0,0,191,94.8,94.8
"2022-07-27 01:06:00",3042470,0.5426667,316.4157,11.59762,0.1112635,0.74,0,0.4953333,112.3335,1.577466,0.02093375,0.53,0,-999,0,10.02,87.3,9.92,9.84,0.2,0,0,8.55,13.26,0.2,102.0844,3.298,3.3,3.297,100,0,0,0,191,94.8,94.8
"2022-07-27 01:07:00",3042471,0.5433334,323.9361,6.010533,0.1007748,0.74,0,0.442,112.466,2.824844,0.03850542,0.53,0,-999,0,10.02,87.3,9.86,9.85,0.2,0,0,8.54,13.27,0.2,102.0741,3.297,3.299,3.297,100,0,0,0,191,94.8,94.8
"2022-07-27 01:08:00",3042472,0.5866667,326.0634,4.417879,0.06106464,0.72,0,0.4933333,111.9327,2.976558,0.03238656,0.54,0,-999,0,10.02,87.3,9.88,9.85,0.2,0,0,8.52,13.26,0.2,102.0751,3.298,3.299,3.297,100,0,0,0,191,94.8,94.8
"2022-07-27 01:09:00",3042473,0.5799999,330.2661,6.883492,0.101653,0.77,0,0.4053333,108.5333,2.124919,0.0377477,0.48,0,-999,0,10.02,87.3,9.87,9.85,0.2,0,0,8.52,13.27,0.2,102.0769,3.297,3.298,3.296,100,0,0,0,191,94.8,94.8
"2022-07-27 01:10:00",3042474,0.596,333.2742,9.941215,0.05263713,0.72,0,0.4226667,102.2001,3.370047,0.04795368,0.5,0,-999,0,10.02,87.3,9.83,9.83,0.2,0,0,8.5,13.27,0.2,102.071,3.296,3.298,3.294,100,0,0,0,191,94.8,94.8
"2022-07-27 01:11:00",3042475,0.638,330.5243,9.935233,0.1000133,0.82,0,0.5546666,100.1334,2.061291,0.02217105,0.59,0,-999,0,10.02,87.3,9.83,9.85,0.2,0,0,8.49,13.26,0.2,102.082,3.297,3.297,3.296,100,0,0,0,191,94.8,94.8
"2022-07-27 01:12:00",3042476,0.5966666,331.1955,7.788544,0.09184528,0.76,0,0.5566667,94.00087,3.632891,0.0291357,0.61,0,-999,0,10.02,87.3,9.87,9.88,0.2,0,0,8.48,13.27,0.2,102.0708,3.296,3.298,3.296,100,0,0,0,191,94.8,94.8
"2022-07-27 01:13:00",3042477,0.7433333,335.5048,8.483621,0.1339983,1.02,0,0.528,92.20084,2.612362,0.06263119,0.64,0,-999,0,10.02,87.3,9.85,9.89,0.2,0,0,8.46,13.26,0.2,102.0775,3.298,3.298,3.296,100,0,0,0,191,94.8,94.8
"2022-07-27 01:14:00",3042478,0.7193333,332.595,4.713624,0.1256698,0.96,0,0.4913333,91.13339,1.892647,0.03138294,0.54,0,-999,0,10.02,87.3,9.87,9.9,0.2,0,0,8.45,13.27,0.2,102.0748,3.298,3.298,3.296,100,0,0,0,191,94.8,94.8
"2022-07-27 01:15:00",3042479,0.6986666,328.7901,7.301895,0.08444854,0.87,0,0.448,89.66621,2.384918,0.02970971,0.49,0,-999,0,10.02,87.3,9.82,9.89,0.2,0,0,8.44,13.26,0.2,102.0723,3.298,3.299,3.297,100,0,0,0,191,94.8,94.8
"2022-07-27 01:16:00",3042480,0.878,325.0792,7.15688,0.1804144,1.21,0,0.3913333,93.79984,1.641032,0.04063933,0.48,0,-999,0,10.02,87.3,9.88,9.89,0.2,0,0,8.44,13.26,0.2,102.0858,3.298,3.299,3.297,100,0,0,0,191,94.8,94.8
"2022-07-27 01:17:00",3042481,1.055333,323.735,7.859558,0.2077135,1.46,0,0.3553334,91.80012,1.7588,0.03052139,0.39,0,-999,0,10.02,87.3,9.99,9.94,0.2,0,0,8.42,13.26,0.2,102.0693,3.299,3.299,3.296,100,0,0,0,191,94.8,94.8
"2022-07-27 01:18:00",3042482,0.906,317.1989,5.416731,0.1252624,1.18,0,0.1913333,98.66782,13.66227,0.06751461,0.29,0,-999,0,10.02,87.3,9.95,9.97,0.2,0,0,8.4,13.26,0.2,102.068,3.298,3.298,3.297,100,0,0,0,191,94.8,94.8
"2022-07-27 01:19:00",3042483,0.93,328.308,11.29187,0.1680476,1.25,0,0.354,64.24409,15.59385,0.09009625,0.54,0,-999,0,10.02,87.3,9.86,9.92,0.2,0,0,8.39,13.26,0.2,102.0696,3.297,3.298,3.296,100,0,0,0,191,94.8,94.8
"2022-07-27 01:20:00",3042484,1.044,319.6077,4.154026,0.1303227,1.26,0,0.2466667,70.09904,15.78966,0.06425643,0.33,0,-999,0,10.02,87.3,9.82,9.89,0.2,0,0,8.37,13.26,0.2,102.0812,3.298,3.298,3.296,100,0,0,0,191,94.8,94.8
"2022-07-27 01:21:00",3042485,0.8900001,322.0667,4.056963,0.09556846,1.05,0,0.356,73.42097,15.50295,0.0594194,0.45,0,-999,0,10.02,87.3,9.86,9.89,0.2,0,0,8.37,13.26,0.2,102.0714,3.296,3.297,3.296,100,0,0,0,191,94.8,94.8
"2022-07-27 01:22:00",3042486,0.876,326.0633,4.521824,0.06488965,0.98,0,0.4166667,77.9358,3.887894,0.02624669,0.45,0,-999,0,10.02,87.3,9.79,9.88,0.2,0,0,8.35,13.27,0.2,102.0784,3.296,3.297,3.296,100,0,0,0,191,94.8,94.8
"2022-07-27 01:23:00",3042487,0.8153334,337.6051,6.073217,0.07237556,0.97,0,0.4053333,73.53204,3.007746,0.01746107,0.43,0,-999,0,10.02,87.3,9.8,9.85,0.2,0,0,8.35,13.26,0.2,102.0772,3.297,3.297,3.296,100,0,0,0,191,94.8,94.8
"2022-07-27 01:24:00",3042488,0.8453333,331.6626,6.40331,0.07666957,1.02,0,0.3966666,81.99458,6.405561,0.01920648,0.43,0,-999,0,10.02,87.3,9.78,9.82,0.2,0,0,8.34,13.26,0.2,102.0677,3.296,3.296,3.296,100,0,0,0,191,94.8,94.8
"2022-07-27 01:25:00",3042489,0.7419999,338.2491,8.404121,0.09502281,0.91,0,0.4146667,95.20012,1.972991,0.02156128,0.46,0,-999,0,10.02,87.3,9.78,9.82,0.2,0,0,8.33,13.26,0.2,102.0797,3.296,3.297,3.296,100,0,0,0,191,94.8,94.8
"2022-07-27 01:26:00",3042490,0.904,339.6655,6.266365,0.09293726,1.11,0,0.4286667,97.66473,3.514292,0.03403267,0.47,0,-999,0,10.02,87.3,9.82,9.86,0.2,0,0,8.31,13.27,0.2,102.0736,3.298,3.298,3.296,100,0,0,0,191,94.8,94.8
"2022-07-27 01:27:00",3042491,0.6726666,336.6621,5.270608,0.06557099,0.81,0,0.454,103.0667,2.204942,0.02332381,0.48,0,-999,0,10.02,87.3,9.74,9.85,0.2,0,0,8.3,13.26,0.2,102.0779,3.296,3.296,3.294,100,0,0,0,191,94.8,94.8
"2022-07-27 01:28:00",3042492,0.614,331.9226,6.593353,0.05225579,0.69,0,0.4493333,105.9331,2.669865,0.02954469,0.5,0,-999,0,10.02,87.3,9.66,9.78,0.2,0,0,8.3,13.26,0.2,102.0749,3.297,3.298,3.296,100,0,0,0,191,94.8,94.8
"2022-07-27 01:29:00",3042493,0.7153333,325.207,8.361257,0.1391338,0.99,0,0.438,103.7335,2.644532,0.03015516,0.49,0,-999,0,10.02,87.3,9.65,9.76,0.2,0,0,8.28,13.26,0.2,102.0757,3.296,3.297,3.294,100,0,0,0,191,94.8,94.8
"2022-07-27 01:30:00",3042494,0.8273334,321.5406,9.317387,0.147579,1.08,0,0.4486666,113.1313,5.122486,0.04587907,0.5,0,-999,0,10.02,87.3,9.59,9.73,0.2,0,0,8.26,13.26,0.2,102.0798,3.296,3.296,3.294,100,0,0,0,191,94.8,94.8
"2022-07-27 01:31:00",3042495,0.7153333,322.4033,5.299816,0.08452746,0.87,0,0.3433333,130.2013,3.249181,0.04839651,0.42,0,-999,0,10.02,87.3,9.57,9.69,0.2,0,0,8.26,13.26,0.2,102.0738,3.293,3.296,3.293,100,0,0,0,191,94.8,94.8
"2022-07-27 01:32:00",3042496,0.7633334,314.1347,6.488979,0.1164283,0.94,0,0.4593334,123.3334,2.180735,0.04836895,0.55,0,-999,0,10.02,87.3,9.55,9.67,0.2,0,0,8.26,13.27,0.2,102.0781,3.296,3.296,3.294,100,0,0,0,191,94.8,94.8
"2022-07-27 01:33:00",3042497,0.9453333,317.4624,5.594578,0.1128933,1.15,0,0.5813334,117.7333,0.6801375,0.02801586,0.63,0,-999,0,10.02,87.3,9.62,9.69,0.2,0,0,8.23,13.26,0.2,102.0858,3.294,3.297,3.294,100,0,0,0,191,94.8,94.8
"2022-07-27 01:34:00",3042498,0.8126667,314.9148,7.119657,0.1481201,1.05,0,0.528,116.4004,2.026219,0.03885015,0.6,0,-999,0,10.02,87.3,9.7,9.75,0.2,0,0,8.23,13.27,0.2,102.0761,3.294,3.298,3.294,100,0,0,0,191,94.8,94.8
"2022-07-27 01:35:00",3042499,0.7406666,320.7996,3.561983,0.1054177,0.9,0,0.4966666,111.0654,4.234068,0.03753517,0.55,0,-999,0,10.02,87.3,9.74,9.78,0.2,0,0,8.21,13.26,0.2,102.0903,3.294,3.296,3.294,100,0,0,0,191,94.8,94.8
"2022-07-27 01:36:00",3042500,0.6906667,318.3403,5.531566,0.05638754,0.76,0,0.3253333,104.9634,8.265759,0.08905929,0.45,0,-999,0,10.02,87.3,9.81,9.81,0.2,0,0,8.21,13.26,0.2,102.0806,3.296,3.297,3.294,100,0,0,0,191,94.8,94.8
"2022-07-27 01:37:00",3042501,0.73,313.3228,8.390901,0.1056409,0.95,0,0.4386667,102.5351,4.4833,0.05377318,0.56,0,-999,0,10.02,87.3,9.75,9.79,0.2,0,0,8.19,13.27,0.2,102.0809,3.297,3.297,3.296,100,0,0,0,191,94.8,94.8
"2022-07-27 01:38:00",3042502,0.8833333,316.2676,4.24815,0.07760298,0.99,0,0.5386666,106.332,3.319496,0.01627542,0.57,0,-999,0,10.02,87.3,9.73,9.76,0.2,0,0,8.18,13.26,0.2,102.087,3.294,3.296,3.294,100,0,0,0,191,94.8,94.8
"2022-07-27 01:39:00",3042503,0.8353332,314.5336,4.160357,0.0720987,1.01,0,0.4866667,108.3998,2.026461,0.03627058,0.54,0,-999,0,10.02,87.3,9.78,9.79,0.2,0,0,8.17,13.27,0.2,102.075,3.296,3.296,3.293,100,0,0,0,191,94.8,94.8
"2022-07-27 01:40:00",3042504,0.7300001,315.5374,5.545725,0.05785038,0.81,0,0.556,102.5991,3.050014,0.02678308,0.61,0,-999,0,10.02,87.3,9.82,9.83,0.2,0,0,8.17,13.26,0.2,102.0842,3.297,3.298,3.294,100,0,0,0,191,94.8,94.8
"2022-07-27 01:41:00",3042505,0.7539999,322.7318,3.956199,0.07040833,0.89,0,0.6393334,97.73354,2.743572,0.05372357,0.73,0,-999,0,10.02,87.3,9.76,9.84,0.2,0,0,8.17,13.26,0.2,102.0811,3.296,3.297,3.296,100,0,0,0,191,94.8,94.8
"2022-07-27 01:42:00",3042506,0.7926666,333.5332,5.803216,0.05971786,0.92,0,0.6366666,87.86666,1.147112,0.03025814,0.7,0,-999,0,10.02,87.3,9.72,9.8,0.2,0,0,8.15,13.27,0.2,102.0751,3.296,3.297,3.296,100,0,0,0,191,94.8,94.8
"2022-07-27 01:43:00",3042507,0.7413332,341.4762,8.13787,0.08570233,0.93,0,0.7659999,85.86667,0.9563734,0.02303619,0.82,0,-999,0,10.02,87.3,9.67,9.77,0.2,0,0,8.15,13.26,0.2,102.0818,3.294,3.296,3.294,100,0,0,0,191,94.8,94.8
"2022-07-27 01:44:00",3042508,0.7913333,344.7275,5.681791,0.1167828,0.96,0,0.6946667,79.53323,3.61171,0.08928358,0.81,0,-999,0,10.02,87.3,9.57,9.71,0.2,0,0,8.14,13.26,0.2,102.0768,3.293,3.296,3.293,100,0,0,0,191,94.8,94.8
"2022-07-27 01:45:00",3042509,0.838,350.1978,5.818146,0.1085173,1.07,0,0.6333333,82.13426,2.679426,0.04093356,0.69,0,-999,0,10.02,87.3,9.48,9.64,0.2,0,0,8.13,13.26,0.2,102.079,3.297,3.297,3.293,100,0,0,0,191,94.8,94.8
"2022-07-27 01:46:00",3042510,0.7293333,353.8579,7.542776,0.05519259,0.8,0,0.5973333,79.13285,3.303386,0.04154782,0.66,0,-999,0,10.02,87.3,9.38,9.56,0.2,0,0,8.13,13.26,0.2,102.0829,3.296,3.298,3.296,100,0,0,0,191,94.8,94.8
"2022-07-27 01:47:00",3042511,0.7046668,357.1342,6.595332,0.05451198,0.81,0,0.5979999,79.13329,1.359941,0.03562771,0.69,0,-999,0,10.02,87.3,9.34,9.49,0.2,0,0,8.13,13.26,0.2,102.0678,3.294,3.297,3.294,100,0,0,0,191,94.8,94.8
"2022-07-27 01:48:00",3042512,0.7433334,5.532605,7.055034,0.04315347,0.81,0,0.7166668,75.53334,2.093019,0.0426875,0.78,0,-999,0,10.02,87.3,9.4,9.48,0.2,0,0,8.13,13.26,0.2,102.0798,3.296,3.296,3.294,100,0,0,0,191,94.8,94.8
"2022-07-27 01:49:00",3042513,0.7606667,11.03067,6.892238,0.08465353,0.9,0,0.6693333,76.06651,1.768569,0.02743882,0.72,0,-999,0,10.02,87.3,9.41,9.48,0.2,0,0,8.13,13.26,0.2,102.0673,3.294,3.296,3.294,100,0,0,0,191,94.8,94.8